Regional Weather Roundup
Issued by NWS

Home | Current Version | Previous Version | Graphics & Text | Print | Product List | Glossary Off
Versions: 1 2 3 4 5 6 7 8 9 10 11 12 13 14 15 16 17 18 19 20 21 22 23 24 25 26 27 28 29 30 31 32 33 34 35 36 37 38 39 40 41 42 43 44 45 46 47 48 49 50

000
ASUS43 KTOP 051659
RWRKS

WEATHER ROUNDUP FOR KANSAS
NATIONAL WEATHER SERVICE GOODLAND KS
1200 PM CDT TUE MAY 05 2015

NOTE:  "FAIR" INDICATES FEW OR NO CLOUDS BELOW 12,000 FEET WITH NO
SIGNIFICANT WEATHER AND/OR OBSTRUCTIONS TO VISIBILITY.

KSZ001>006-013>018-027>032-041>047-051800-
NORTHWEST KANSAS

CITY           SKY/WX    TMP DP  RH WIND       PRES   REMARKS
GOODLAND       LGT RAIN  58  57  97 SE10      29.97S
HAYS           CLOUDY    66  54  63 S24       29.99S
HILL CITY      CLOUDY    65  57  75 S16G28    29.99R
RUSSELL        PTSUNNY   72  58  61 S20G31    29.99S
$$

KSZ061>065-074>080-084>089-051800-
SOUTHWEST KANSAS

CITY           SKY/WX    TMP DP  RH WIND       PRES   REMARKS
DODGE CITY     LGT RAIN  61  56  83 SE18G26   29.97S
ELKHART          N/A     57  54  90 NW3         N/A
GARDEN CITY    LGT RAIN  58  57  97 SE20      29.92F
GREAT BEND     CLOUDY    66  55  68 S17G23    30.00S
LIBERAL        CLOUDY    59  55  88 SE22G31   29.90S
$$

KSZ066>073-081>083-090>101-051800-
SOUTHEAST KANSAS

CITY           SKY/WX    TMP DP  RH WIND       PRES   REMARKS
CHANUTE        PTSUNNY   76  59  55 S14       30.09F
COFFEYVILLE    CLOUDY    76  60  57 S12G21    30.09S
HUTCHINSON     CLOUDY    74  55  51 S23G37    30.02F
MEDICINE LODGE   N/A     71  56  58 S14G26    29.99F
NEWTON         CLOUDY    72  54  53 S23       30.07S
PARSONS        PTSUNNY   76  59  55 S13G22    30.11S
WICHITA INTL   PTSUNNY   76  54  46 S22G32    30.03F
WICHITA JABRA  CLOUDY    73  55  53 S20G30    30.04F
WINFIELD       PTSUNNY   74  58  57 S22G28    30.04F
$$

KSZ007>012-019>026-033>040-048>060-102>105-051800-
NORTHEAST KANSAS

CITY           SKY/WX    TMP DP  RH WIND       PRES   REMARKS
CONCORDIA      CLOUDY    72  57  59 S14G24    30.04S
EMPORIA        CLOUDY    74  57  55 S17G24    30.08S
LAWRENCE       PTSUNNY   76  58  53 S10       30.10F
MANHATTAN      CLOUDY    74  59  59 S14G21    30.06S
OLATHE IND     PTSUNNY   77  58  51 S10       30.12F
OLATHE EXE     MOSUNNY   76  59  55 S16G22    30.11F
SALINA         PTSUNNY   74  60  61 S17G24    30.03F
TOPEKA BILLARD PTSUNNY   76  59  55 S10       30.09F
TOPEKA FORBES  PTSUNNY   76  58  53 S15       30.08F
$$



USA.gov is the U.S. government's official web portal to all federal, state and local government web resources and services.